Tracking 35334 objects as of 13-Sep-2026
HD Live streaming from Space Station
objects crossing your sky now

EUTE KONNECT VHTS

Track EUTE KONNECT VHTS now!
EUTE KONNECT VHTS is classified as:


NORAD ID: 53765
Int'l Code: 2022-110A
Launch date: September 7, 2022
Source: European Telecommunications Satellite Organization (EUTE)
Launch site: FRENCH GUIANA (FRGUI)
Your satellite tracking list
Your tracking list is empty




NASA's NSSDC Master Catalog

Two Line Element Set (TLE):
1 53765U 22110A   26256.07880325  .00000005  00000-0  00000-0 0  9991
2 53765   0.0570 104.2588 0002839  38.9042 239.9906  1.00271049  7713
Source of the keplerian elements: AFSPC